Wind_Speed
29 31 27 22 18 18 18 16 13 13 14 15 14 15 15 18 11 19 31 37 43 43 37 34 34 36 37 36 36 31 26 24
32 30 27 23 20 16 17 16 14 14 13 14 16 14 13 10 13 10 32 37 40 41 34 32 36 35 37 36 36 31 30 30
22 29 29 16 14 15 16 16 14 14 14 14 15 15 14 14 10 15 19 30 37 39 34 32 33 36 37 37 36 33 32 31
23 23 23 17 13 11 14 15 13 13 14 15 14 15 18 19 18 19 19 23 20 33 37 35 35 36 36 36 35 33 33 33
25 23 19 15 16 12 11 13 12 10 11 14 11 11 16 15 16 19 20 26 35 30 39 40 42 39 40 38 37 34 34 36
24 25 24 16 15 13 10 11 11 8 8 10 9 10 16 15 15 19 19 30 29 32 37 36 36 31 39 41 39 44 39 38
30 26 29 22 19 16 10 10 9 7 6 4 7 8 11 11 8 10 16 25 38 37 32 37 35 36 29 42 46 46 43 40
22 30 29 25 24 17 11 10 8 6 4 1 3 9 9 12 10 8 9 27 39 40 32 35 30 32 38 38 42 45 40 43
28 32 28 27 24 14 12 10 8 6 3 1 3 5 10 11 11 9 8 14 23 28 31 28 32 30 34 28 40 42 46 41
26 29 28 26 22 12 12 12 9 6 5 3 5 5 5 7 9 10 12 10 16 24 25 19 18 19 25 26 37 42 43 44
23 22 24 23 15 13 14 14 12 10 8 6 5 5 4 4 4 5 7 11 17 17 17 15 15 22 22 27 29 35 41 39
21 24 27 20 18 16 14 13 14 10 9 8 6 4 3 2 2 3 5 8 13 23 22 23 22 22 25 25 28 32 33 34
26 29 31 23 22 17 15 12 16 16 16 14 12 10 8 5 5 5 6 7 8 11 20 24 26 29 26 29 31 28 28 32
29 33 30 29 27 22 20 16 15 19 19 17 15 14 13 12 11 10 10 11 12 12 13 16 24 26 32 33 31 37 38 39
32 30 30 31 29 26 23 19 18 20 21 20 18 18 17 17 17 16 15 15 15 16 17 19 19 21 25 29 32 32 33 35
25 30 33 31 29 26 20 16 11 12 15 15 14 16 16 16 17 19 21 21 20 21 21 22 23 25 25 27 29 32 34 37
14 13 13 11 13 19 22 23 15 11 13 14 13 15 16 15 14 15 16 18 21 21 24 26 28 29 30 31 33 35 36 38
8 11 12 7 6 7 8 12 16 19 31 32 29 25 25 24 21 21 23 24 24 22 23 25 26 28 31 35 37 40 41 42
10 8 5 3 8 7 6 8 10 13 18 21 24 26 27 31 31 31 30 29 30 32 32 31 31 28 33 34 33 36 42 45
Wind_Direction
261 267 261 264 276 295 293 293 281 278 281 279 268 262 266 275 237 219 201 187 178 181 192 197 198 202 204 206 209 209 217 221
255 256 255 258 267 285 287 297 282 275 280 281 274 262 247 251 242 223 190 187 180 180 189 197 203 206 206 205 207 214 217 216
252 247 246 250 255 275 287 292 284 279 288 285 268 254 219 213 224 179 185 187 193 192 190 200 203 205 206 208 212 213 216 220
239 231 239 235 238 270 284 290 287 283 296 295 278 246 207 210 213 213 213 220 221 207 197 201 205 207 212 214 218 219 222 223
242 236 235 236 235 249 279 286 285 287 301 295 282 216 211 219 232 235 233 227 220 218 220 207 203 206 210 219 220 223 223 227
240 241 236 223 223 243 271 285 287 288 304 296 272 191 188 198 217 237 240 217 211 222 218 218 222 220 214 214 216 218 220 228
237 243 234 229 224 235 265 278 284 285 305 304 251 215 196 206 215 223 211 216 226 219 225 231 223 226 229 221 222 227 219 229
249 233 226 224 219 229 257 263 271 266 285 259 240 217 203 204 211 213 236 206 212 218 223 223 238 232 226 227 224 226 229 230
231 223 226 217 215 222 237 238 249 246 246 192 145 201 213 207 204 208 210 225 219 226 224 227 233 241 230 244 230 232 229 246
216 218 223 211 209 224 229 220 224 228 212 167 134 151 188 198 202 204 201 212 213 227 223 229 230 235 241 249 241 237 242 243
189 201 211 199 204 210 213 209 209 213 194 171 145 140 166 183 184 185 199 212 204 203 213 219 236 231 240 244 247 248 245 248
188 202 193 182 194 194 201 208 210 208 192 180 166 162 174 229 218 215 206 206 212 202 220 226 229 233 246 243 242 244 244 245
193 194 187 183 187 185 193 202 206 209 210 205 203 204 215 234 268 273 266 254 234 224 223 230 230 231 240 242 247 250 254 257
192 188 190 196 195 198 196 205 209 210 214 218 219 222 228 231 237 245 254 261 266 260 249 242 240 239 235 240 239 245 250 251
192 197 204 211 207 208 207 215 224 221 220 222 226 230 235 244 247 247 249 252 253 255 260 262 256 251 250 249 249 250 248 247
197 207 215 217 217 218 223 230 228 223 219 225 231 245 249 253 257 254 252 251 252 255 255 255 257 259 260 259 257 257 256 257
131 157 170 196 224 232 227 223 223 224 230 237 241 252 259 253 254 259 261 260 260 259 260 260 258 259 262 263 265 265 263 261
150 123 125 133 155 144 180 215 234 238 236 251 263 260 259 274 265 267 266 267 269 270 270 267 265 264 264 265 264 263 263 263
128 128 128 239 231 222 212 222 237 250 263 265 264 268 264 271 277 275 276 273 271 268 270 275 271 268 262 264 267 270 272 270
Height
3057 3059 3061 3063 3063 3062 3061 3060 3057 3055 3054 3053 3052 3051 3050 3048 3047 3048 3050 3054 3059 3070 3082 3088 3094 3099 3103 3107 3112 3114 3121 3125
3050 3054 3056 3059 3059 3059 3058 3057 3055 3054 3052 3050 3049 3049 3049 3048 3047 3046 3049 3056 3062 3070 3078 3086 3091 3096 3101 3105 3109 3112 3117 3120
3044 3047 3051 3054 3055 3055 3054 3054 3052 3051 3049 3048 3046 3045 3047 3048 3049 3051 3054 3058 3063 3068 3075 3082 3087 3093 3098 3102 3105 3109 3113 3117
3041 3043 3046 3050 3051 3052 3051 3051 3050 3049 3047 3044 3042 3042 3043 3047 3050 3054 3056 3059 3062 3066 3073 3079 3084 3090 3095 3099 3103 3107 3110 3114
3036 3039 3042 3045 3048 3050 3050 3048 3047 3047 3045 3041 3039 3040 3042 3046 3050 3053 3056 3058 3060 3064 3069 3073 3079 3086 3090 3097 3101 3104 3108 3111
3030 3033 3038 3042 3045 3047 3047 3046 3045 3045 3043 3041 3038 3039 3041 3044 3047 3049 3051 3054 3057 3063 3065 3069 3075 3080 3084 3090 3094 3098 3102 3107
3024 3029 3033 3038 3041 3043 3044 3044 3044 3043 3042 3041 3040 3039 3040 3043 3045 3047 3048 3050 3053 3060 3064 3069 3072 3076 3080 3083 3088 3092 3097 3102
3016 3022 3028 3033 3036 3040 3041 3042 3042 3042 3041 3040 3040 3040 3040 3042 3044 3046 3048 3050 3054 3058 3062 3066 3070 3073 3076 3079 3083 3087 3091 3094
3010 3016 3023 3029 3033 3037 3038 3040 3040 3040 3040 3040 3039 3041 3041 3042 3042 3044 3047 3050 3053 3056 3058 3062 3066 3069 3072 3077 3080 3083 3087 3090
3005 3011 3019 3025 3030 3033 3035 3037 3038 3039 3040 3040 3040 3041 3043 3044 3044 3043 3044 3047 3049 3053 3056 3060 3063 3066 3070 3072 3075 3079 3083 3085
3001 3008 3016 3023 3027 3030 3032 3034 3036 3037 3038 3040 3041 3042 3044 3045 3046 3046 3046 3047 3048 3051 3055 3058 3060 3063 3065 3068 3071 3074 3076 3079
2999 3004 3012 3017 3022 3026 3029 3030 3032 3035 3037 3039 3040 3042 3043 3045 3046 3046 3047 3047 3049 3051 3053 3055 3058 3061 3062 3064 3066 3069 3070 3072
2995 3000 3007 3013 3018 3022 3025 3027 3029 3030 3031 3033 3035 3038 3040 3042 3044 3045 3046 3047 3047 3049 3050 3051 3052 3054 3057 3059 3061 3063 3064 3065
2993 2997 3003 3007 3012 3016 3019 3022 3024 3025 3028 3030 3032 3033 3035 3036 3038 3040 3042 3043 3044 3045 3046 3047 3050 3050 3050 3053 3054 3057 3057 3059
2992 2996 3000 3003 3008 3012 3015 3018 3021 3023 3026 3027 3029 3031 3032 3033 3034 3036 3038 3039 3040 3041 3042 3043 3044 3045 3046 3048 3048 3048 3049 3049
2990 2993 2996 3000 3004 3009 3012 3016 3019 3022 3024 3025 3027 3029 3030 3031 3031 3032 3033 3033 3034 3036 3037 3038 3039 3040 3040 3041 3041 3041 3041 3042
2990 2992 2995 2999 3002 3004 3009 3013 3015 3017 3021 3023 3025 3026 3027 3028 3029 3029 3029 3029 3029 3030 3030 3032 3032 3033 3034 3034 3034 3034 3034 3034
2991 2995 2996 3000 3003 3005 3008 3011 3013 3015 3017 3019 3019 3021 3022 3023 3023 3024 3025 3025 3025 3026 3025 3025 3025 3026 3025 3024 3025 3024 3023 3023
2994 2994 2996 3000 3002 3004 3006 3008 3010 3011 3013 3014 3015 3015 3016 3016 3016 3017 3017 3018 3018 3019 3019 3018 3017 3019 3014 3014 3015 3015 3014 3015